EST,Max TemperatureF,Mean TemperatureF,Min TemperatureF,Max Dew PointF,MeanDew PointF,Min DewpointF,Max Humidity, Mean Humidity, Min Humidity, Max Sea Level PressureIn, Mean Sea Level PressureIn, Min Sea Level PressureIn, Max VisibilityMiles, Mean VisibilityMiles, Min VisibilityMiles, Max Wind SpeedMPH, Mean Wind SpeedMPH, Max Gust SpeedMPH,PrecipitationIn, CloudCover, Events, WindDirDegrees
2011-12-1,32,24,17,32,24,10,100,87,73,30.30,30.16,30.02,10,7,1,17,4,16,0.02,7,Snow,337
2011-12-2,26,17,8,18,12,5,100,76,59,30.32,30.27,30.19,10,10,10,17,6,24,0.00,3,Snow,228
2011-12-3,33,28,23,32,28,18,100,91,77,30.18,30.02,29.87,10,4,0,20,12,26,0.18,7,Fog-Snow,199
2011-12-4,33,28,24,32,28,21,100,92,80,30.22,29.93,29.75,10,5,0,21,5,26,0.06,8,Fog-Snow,351
2011-12-5,25,22,18,21,19,14,87,83,80,30.38,30.30,30.23,10,7,1,13,7,17,0.00,8,Snow,328
2011-12-6,22,17,11,16,12,7,86,81,68,30.36,30.21,29.95,10,8,3,10,8,,0.00,6,Snow,270
2011-12-7,26,18,11,19,13,8,87,81,69,29.94,29.84,29.79,10,10,7,16,10,,0.00,4,Snow,231
2011-12-8,21,14,6,14,7,0,86,71,42,30.00,29.89,29.80,10,10,5,21,11,28,0.00,1,Snow,242
2011-12-9,15,9,3,3,-1,-4,78,68,53,30.19,30.06,29.99,10,10,10,15,6,21,0.00,1,,242
2011-12-10,17,9,1,5,0,-4,78,67,57,30.23,30.18,30.12,10,10,10,14,5,18,0.00,3,,212
2011-12-11,39,24,9,25,15,4,93,75,56,30.11,30.06,29.97,10,9,2,18,10,23,0.00,1,,197
2011-12-12,33,30,28,32,30,23,100,90,76,30.28,30.19,30.11,10,5,1,12,7,17,0.01,7,Snow,199
2011-12-13,34,33,32,33,32,30,100,94,87,30.35,30.29,30.22,10,4,0,12,2,,0.00,8,Fog,19
2011-12-14,35,34,33,35,33,32,100,95,93,30.22,29.92,29.53,2,1,0,8,4,,0.28,8,Fog-Rain-Snow,160
2011-12-15,35,28,22,34,28,14,100,87,68,30.00,29.59,29.43,10,8,1,28,5,38,0.05,8,Rain-Snow,299
2011-12-16,22,16,9,17,11,5,83,75,58,30.30,30.21,30.02,10,10,7,23,15,30,0.00,6,Snow,321
2011-12-17,23,12,1,20,8,-4,93,82,68,30.29,30.15,29.97,10,9,3,17,4,16,0.00,3,Snow,227
2011-12-18,32,28,23,25,21,19,87,80,64,30.02,29.85,29.55,10,10,10,18,8,25,0.00,6,,211
2011-12-19,34,29,24,30,23,16,90,81,69,30.20,29.85,29.55,10,10,2,18,8,24,0.00,7,Snow,311
2011-12-20,32,26,19,18,16,14,82,72,55,30.20,29.99,29.71,10,10,10,23,8,29,0.00,5,,205
2011-12-21,32,23,14,25,18,10,93,81,55,29.82,29.67,29.54,10,10,7,10,6,,0.00,3,,231
2011-12-22,31,24,17,27,20,9,88,76,62,30.20,30.04,29.82,10,9,2,20,6,25,0.00,8,Snow,322
2011-12-23,21,18,14,18,11,6,89,73,58,30.21,30.14,30.05,10,9,1,15,6,22,0.00,7,Snow,222
2011-12-24,28,22,17,23,19,16,93,85,74,30.14,30.02,29.80,10,10,7,16,4,,0.00,6,,204
2011-12-25,32,29,26,28,23,21,87,77,64,30.12,29.89,29.72,10,9,3,18,9,25,0.00,8,Snow,267
2011-12-26,41,34,27,25,23,21,80,66,49,30.11,29.85,29.52,10,10,10,32,13,38,0.00,3,,214
2011-12-27,38,26,14,28,20,8,87,77,59,29.92,29.65,29.50,10,6,0,29,12,39,0.00,6,Snow,313
2011-12-28,18,15,12,14,9,7,86,79,68,29.98,29.90,29.76,10,8,2,16,11,24,0.00,8,Snow,295
2011-12-29,32,25,18,30,22,14,93,88,78,29.75,29.60,29.48,10,7,1,10,6,17,0.00,7,Snow,173
2011-12-30,30,20,10,27,21,7,93,87,78,29.77,29.69,29.63,10,7,0,10,1,,0.00,5,Fog,357
2011-12-31,33,24,15,32,24,12,94,87,75,29.88,29.79,29.67,10,9,4,17,3,23,0.00,6,,181